251  
ASUS43 KJKL 232010  
RWRJKL  
 
EAST KENTUCKY HOURLY WEATHER ROUNDUP  
NATIONAL WEATHER SERVICE JACKSON KY  
400 PM EDT TUE APR 23 2024  
 
NOTE: "FAIR" INDICATES FEW OR NO CLOUDS BELOW 12,000 FEET WITH  
NO SIGNIFICANT WEATHER AND/OR S TO VISIBILITY
.  
 
* THESE REPORTS ARE NOT UNDER NWS QUALITY CONTROL AND MAY NOT  
REPORT WEATHER SUCH AS PRECIPITATION AND FOG.
 
 
KYZ079-080-083-085-087-088-110-112-115-119-120-232100   
..EASTERN KENTUCKY
 
 
 
CITY SKY/WX TMP DP RH WIND PRES REMARKS
 
JACKSON PTSUNNY 71 30 21 MISG 29.99F  
LONDON PTSUNNY 73 29 19 SW13G22 30.01F  
SOMERSET* LGT RAIN 72 34 25 SW15G25 29.99F  
MONTICELLO* MOSUNNY 70 38 31 SW18G28 30.04F  
WILLIAMSBURG* MOSUNNY 73 30 20 S14 30.02F  
MIDDLESBORO* MOSUNNY 70 34 26 S10G21 30.06F  
HARLAN APT* SUNNY 72 30 21 SW6 30.05F  
PIKE CO APT* MOSUNNY 72 26 17 S7G16 29.99F  
BIG SANDY APT* PTSUNNY 73 26 17 W13G20 29.98F  
MOREHEAD APT* CLOUDY 68 28 22 SW12G25 29.98F  
ASHLAND* CLOUDY 72 33 24 SW12 29.93F  

 
 
KYZ035-036-041-042-044-050-067-078-099-232100   
..CENTRAL KENTUCKY
 
 
 
CITY SKY/WX TMP DP RH WIND PRES REMARKS
 
MT STERLING* PTSUNNY 68 36 30 W16G25 29.98F  
FLEMING/MASON* CLOUDY 69 36 30 W15G26 29.96F  
DANVILLE* PTSUNNY 70 36 28 SW13G22 29.99F  
RICHMOND* MOCLDY 70 34 26 SW20G25 30.00F  
LEXINGTON PTSUNNY 69 36 29 SW20G33 29.95F  
FRANKFORT PTSUNNY 68 36 30 SW20G28 29.93F  
LOUISVILLE CLOUDY 73 35 25 SW21G33 29.90F  
LEBANON* PTSUNNY 72 37 28 S20G25 29.97F  
GLASGOW* PTSUNNY 70 39 33 SW20G28 29.99F  
BOWLING GREEN PTSUNNY 73 37 27 SW18G31 29.98F  

 
 
KYZ091>093-OHZ055-061-077-WVZ005-015-034-035-042-232100   
..SOUTHERN OHIO/WEST VIRGINIA
 
 
 
CITY SKY/WX TMP DP RH WIND PRES REMARKS
 
COVINGTON CLOUDY 65 39 38 SW16G30 29.89F  
COLUMBUS CLOUDY 66 37 34 SW15G25 29.89F  
DAYTON CLOUDY 64 40 41 SW16G30 29.87F  
WILMINGTON CLOUDY 65 37 35 SW20G32 29.88F  
HUNTINGTON CLOUDY 73 28 18 W10G21 29.94F  
CHARLESTON MOSUNNY 74 24 15 SW9G18 29.95F  
PINEVILLE* SUNNY 75 21 13 MISG 30.05F  
BECKLEY SUNNY 69 20 15 W10G25 30.01  
BLUEFIELD SUNNY 66 25 21 SW18G30 30.05F  
LOGAN CO APT* MOSUNNY 72 25 17 W8G16 29.99F  

 
 
VAZ002-007-008-TNZ017-027-036-066-071-232100   
..SOUTHWEST VIRGINIA/EAST TENNESSEE
 
 
 
CITY SKY/WX TMP DP RH WIND PRES REMARKS
 
WISE* SUNNY 64 30 27 SW8 30.08F  
JONESVILLE* MOSUNNY 72 27 18 SW14 30.07F  
ABINGDON* SUNNY 66 24 20 W12 30.08F  
BRISTOL PTSUNNY 71 29 21 SW14G29 30.07F  
MORRISTOWN* SUNNY 70 30 23 W14G23 30.06F  
SEVIERVILLE* SUNNY 73 39 29 W8 30.06F  
KNOXVILLE CLOUDY 72 35 25 SW16G24 30.07F  
LAFOLLETTE* SUNNY 72 34 25 SW12 30.08F  
OAK RIDGE MOSUNNY 72 34 24 MISG 30.08F  
CROSSVILLE MOSUNNY 68 33 27 S9G25 30.07F  
NASHVILLE PTSUNNY 74 36 25 S16G31 30.02F  

 
   
..KEY TO REMARKS
 
 
VSB - VISIBILITY IN MILES  
WCI - WIND CHILL INDEX  
HX - HEAT INDEX  
 

 
 
 
CLICK HERE TO GO TO PREVIOUS BULLETINS.

The Nexlab KY Page Main Text Page